Time,TemperatureF,DewpointF,PressureIn,WindDirection,WindDirectionDegrees,WindSpeedMPH,WindSpeedGustMPH,Humidity,HourlyPrecipIn,Conditions,Clouds,dailyrainin,SoftwareType,DateUTC
2013-01-17 00:05:00,34.0,25.0,-100.00,WSW,255,11.0,14.0,67,0.00,,,-99.99,,2013-01-17 05:05:00,
2013-01-17 00:12:00,34.0,25.0,-100.00,WNW,290,9.0,14.0,67,0.00,,,-99.99,,2013-01-17 05:12:00,
2013-01-17 00:22:00,34.0,25.0,-100.00,WSW,254,7.0,14.0,66,0.00,,,-99.99,,2013-01-17 05:22:00,
2013-01-17 00:33:00,34.0,23.0,-100.00,West,273,5.0,14.0,64,0.00,,,-99.99,,2013-01-17 05:33:00,
2013-01-17 00:42:00,34.0,23.0,-100.00,WSW,256,6.0,14.0,62,0.00,,,-99.99,,2013-01-17 05:42:00,
2013-01-17 00:52:00,34.0,23.0,-100.00,West,269,8.0,14.0,63,0.00,,,-99.99,,2013-01-17 05:52:00,
2013-01-17 01:03:00,34.0,23.0,-100.00,SW,231,7.0,14.0,63,0.00,,,-99.99,,2013-01-17 06:03:00,
2013-01-17 01:12:00,34.0,25.0,-100.00,West,280,9.0,14.0,63,0.00,,,-99.99,,2013-01-17 06:12:00,
2013-01-17 01:22:00,35.0,25.0,-100.00,West,262,8.0,14.0,64,0.00,,,-99.99,,2013-01-17 06:22:00,
2013-01-17 01:33:00,34.0,25.0,-100.00,WSW,256,10.0,14.0,66,0.00,,,-99.99,,2013-01-17 06:33:00,
2013-01-17 01:42:00,34.0,25.0,-100.00,WSW,252,7.0,14.0,66,0.00,,,-99.99,,2013-01-17 06:42:00,
2013-01-17 01:52:00,34.0,25.0,-100.00,West,280,8.0,14.0,66,0.00,,,-99.99,,2013-01-17 06:52:00,
2013-01-17 02:02:00,34.0,25.0,-100.00,West,262,10.0,14.0,66,0.00,,,-99.99,,2013-01-17 07:02:00,
2013-01-17 02:12:00,35.0,27.0,-100.00,WNW,283,7.0,14.0,67,0.00,,,-99.99,,2013-01-17 07:12:00,
2013-01-17 02:22:00,34.0,25.0,-100.00,West,261,8.0,14.0,68,0.00,,,-99.99,,2013-01-17 07:22:00,
2013-01-17 02:33:00,35.0,27.0,-100.00,West,272,7.0,14.0,68,0.00,,,-99.99,,2013-01-17 07:33:00,
2013-01-17 02:42:00,35.0,27.0,-100.00,West,275,8.0,14.0,69,0.00,,,-99.99,,2013-01-17 07:42:00,
2013-01-17 02:52:00,35.0,27.0,-100.00,West,275,9.0,14.0,69,0.00,,,-99.99,,2013-01-17 07:52:00,
2013-01-17 03:02:00,35.0,27.0,-100.00,WSW,249,9.0,14.0,69,0.00,,,-99.99,,2013-01-17 08:02:00,
2013-01-17 03:12:00,34.0,27.0,-100.00,WNW,283,9.0,14.0,71,0.00,,,-99.99,,2013-01-17 08:12:00,
2013-01-17 03:22:00,34.0,27.0,-100.00,WNW,295,8.0,14.0,72,0.00,,,-99.99,,2013-01-17 08:22:00,
2013-01-17 03:32:00,35.0,28.0,-100.00,WSW,258,10.0,14.0,72,0.00,,,-99.99,,2013-01-17 08:32:00,
2013-01-17 03:43:00,35.0,28.0,-100.00,WSW,245,7.0,14.0,73,0.00,,,-99.99,,2013-01-17 08:43:00,
2013-01-17 03:52:00,35.0,28.0,-100.00,West,272,9.0,14.0,73,0.00,,,-99.99,,2013-01-17 08:52:00,
2013-01-17 04:03:00,34.0,27.0,-100.00,West,265,9.0,14.0,73,0.00,,,-99.99,,2013-01-17 09:03:00,
2013-01-17 04:12:00,35.0,28.0,-100.00,WNW,292,10.0,14.0,75,0.00,,,-99.99,,2013-01-17 09:12:00,
2013-01-17 04:22:00,35.0,28.0,-100.00,WSW,258,9.0,14.0,75,0.00,,,-99.99,,2013-01-17 09:22:00,
2013-01-17 04:33:00,35.0,28.0,-100.00,WNW,290,8.0,14.0,76,0.00,,,-99.99,,2013-01-17 09:33:00,
2013-01-17 04:42:00,34.0,28.0,-100.00,WNW,285,8.0,14.0,76,0.00,,,-99.99,,2013-01-17 09:42:00,
2013-01-17 04:52:00,35.0,28.0,-100.00,West,275,7.0,14.0,76,0.00,,,-99.99,,2013-01-17 09:52:00,
2013-01-17 05:02:00,35.0,28.0,-100.00,West,273,6.0,14.0,76,0.00,,,-99.99,,2013-01-17 10:02:00,
2013-01-17 05:12:00,35.0,28.0,-100.00,West,273,6.0,14.0,76,0.00,,,-99.99,,2013-01-17 10:12:00,
2013-01-17 05:22:00,35.0,28.0,-100.00,WNW,286,6.0,14.0,76,0.00,,,-99.99,,2013-01-17 10:22:00,
2013-01-17 05:32:00,36.0,30.0,-100.00,WNW,283,6.0,14.0,76,0.00,,,-99.99,,2013-01-17 10:32:00,
2013-01-17 05:42:00,35.0,30.0,-100.00,West,276,6.0,14.0,77,0.00,,,-99.99,,2013-01-17 10:42:00,
2013-01-17 05:52:00,35.0,28.0,-100.00,West,265,7.0,14.0,76,0.00,,,-99.99,,2013-01-17 10:52:00,
2013-01-17 06:03:00,35.0,28.0,-100.00,West,259,5.0,14.0,76,0.00,,,-99.99,,2013-01-17 11:03:00,
2013-01-17 06:12:00,36.0,30.0,-100.00,West,280,4.0,14.0,76,0.00,,,-99.99,,2013-01-17 11:12:00,
2013-01-17 06:22:00,35.0,28.0,-100.00,NW,310,6.0,14.0,75,0.00,,,-99.99,,2013-01-17 11:22:00,
2013-01-17 06:33:00,35.0,28.0,-100.00,WNW,288,6.0,14.0,75,0.00,,,-99.99,,2013-01-17 11:33:00,
2013-01-17 06:43:00,35.0,28.0,-100.00,NW,304,6.0,14.0,73,0.00,,,-99.99,,2013-01-17 11:43:00,
2013-01-17 06:52:00,35.0,28.0,-100.00,WNW,297,4.0,14.0,75,0.00,,,-99.99,,2013-01-17 11:52:00,
2013-01-17 07:03:00,35.0,28.0,-100.00,North,355,2.0,14.0,73,0.00,,,-99.99,,2013-01-17 12:03:00,
2013-01-17 07:12:00,35.0,28.0,-100.00,West,280,1.0,14.0,75,0.00,,,-99.99,,2013-01-17 12:12:00,
2013-01-17 07:23:00,36.0,30.0,-100.00,NNW,344,2.0,14.0,75,0.00,,,-99.99,,2013-01-17 12:23:00,
2013-01-17 07:33:00,35.0,28.0,-100.00,WNW,283,2.0,14.0,75,0.00,,,-99.99,,2013-01-17 12:33:00,
2013-01-17 07:43:00,36.0,30.0,-100.00,WNW,300,4.0,14.0,76,0.00,,,-99.99,,2013-01-17 12:43:00,
2013-01-17 07:52:00,36.0,30.0,-100.00,ENE,70,2.0,14.0,75,0.00,,,-99.99,,2013-01-17 12:52:00,
2013-01-17 08:03:00,35.0,27.0,-100.00,NNW,337,3.0,14.0,71,0.00,,,-99.99,,2013-01-17 13:03:00,
2013-01-17 08:12:00,35.0,27.0,-100.00,NNW,334,2.0,14.0,68,0.00,,,-99.99,,2013-01-17 13:12:00,
2013-01-17 08:23:00,35.0,27.0,-100.00,WNW,302,1.0,14.0,71,0.00,,,-99.99,,2013-01-17 13:23:00,
2013-01-17 08:33:00,35.0,27.0,-100.00,NW,309,2.0,14.0,68,0.00,,,-99.99,,2013-01-17 13:33:00,
2013-01-17 08:43:00,35.0,25.0,-100.00,NNW,337,2.0,14.0,64,0.00,,,-99.99,,2013-01-17 13:43:00,
2013-01-17 08:53:00,35.0,25.0,-100.00,West,259,2.0,14.0,63,0.00,,,-99.99,,2013-01-17 13:53:00,
2013-01-17 09:03:00,36.0,25.0,-100.00,NNW,330,1.0,14.0,63,0.00,,,-99.99,,2013-01-17 14:03:00,
2013-01-17 09:13:00,35.0,25.0,-100.00,ENE,60,1.0,14.0,63,0.00,,,-99.99,,2013-01-17 14:13:00,
2013-01-17 09:23:00,36.0,25.0,-100.00,NW,313,1.0,14.0,63,0.00,,,-99.99,,2013-01-17 14:23:00,
2013-01-17 09:33:00,35.0,25.0,-100.00,WNW,292,1.0,14.0,63,0.00,,,-99.99,,2013-01-17 14:33:00,
2013-01-17 09:43:00,36.0,25.0,-100.00,NNE,18,1.0,14.0,62,0.00,,,-99.99,,2013-01-17 14:43:00,
2013-01-17 09:53:00,35.0,25.0,-100.00,East,81,1.0,14.0,63,0.00,,,-99.99,,2013-01-17 14:53:00,
2013-01-17 10:03:00,36.0,25.0,-100.00,NNW,333,1.0,14.0,63,0.00,,,-99.99,,2013-01-17 15:03:00,
2013-01-17 10:13:00,36.0,25.0,-100.00,NW,316,2.0,14.0,63,0.00,,,-99.99,,2013-01-17 15:13:00,
2013-01-17 10:23:00,36.0,25.0,-100.00,NNW,334,1.0,14.0,62,0.00,,,-99.99,,2013-01-17 15:23:00,
2013-01-17 10:33:00,36.0,25.0,-100.00,ENE,60,0.0,14.0,62,0.00,,,-99.99,,2013-01-17 15:33:00,
2013-01-17 10:43:00,36.0,25.0,-100.00,North,358,1.0,14.0,62,0.00,,,-99.99,,2013-01-17 15:43:00,
2013-01-17 10:53:00,36.0,25.0,-100.00,North,5,1.0,14.0,63,0.00,,,-99.99,,2013-01-17 15:53:00,
2013-01-17 11:03:00,36.0,25.0,-100.00,NW,323,1.0,14.0,62,0.00,,,-99.99,,2013-01-17 16:03:00,
2013-01-17 11:12:00,37.0,27.0,-100.00,NNW,343,1.0,14.0,63,0.00,,,-99.99,,2013-01-17 16:12:00,
2013-01-17 11:23:00,37.0,27.0,-100.00,ENE,74,1.0,14.0,62,0.00,,,-99.99,,2013-01-17 16:23:00,
2013-01-17 11:33:00,36.0,25.0,-100.00,NNE,14,1.0,14.0,63,0.00,,,-99.99,,2013-01-17 16:33:00,
2013-01-17 11:43:00,36.0,25.0,-100.00,North,354,1.0,14.0,63,0.00,,,-99.99,,2013-01-17 16:43:00,
2013-01-17 11:53:00,36.0,25.0,-100.00,North,355,1.0,14.0,64,0.00,,,-99.99,,2013-01-17 16:53:00,
2013-01-17 12:03:00,36.0,27.0,-100.00,WNW,283,2.0,14.0,66,0.00,,,-99.99,,2013-01-17 17:03:00,
2013-01-17 12:13:00,36.0,27.0,-100.00,NNE,22,2.0,14.0,67,0.00,,,-99.99,,2013-01-17 17:13:00,
2013-01-17 12:23:00,36.0,27.0,-100.00,NNW,340,2.0,14.0,67,0.00,,,-99.99,,2013-01-17 17:23:00,
2013-01-17 12:33:00,35.0,27.0,-100.00,North,350,2.0,14.0,68,0.00,,,-99.99,,2013-01-17 17:33:00,
2013-01-17 12:43:00,36.0,27.0,-100.00,West,269,1.0,14.0,68,0.00,,,-99.99,,2013-01-17 17:43:00,
2013-01-17 12:53:00,36.0,27.0,-100.00,West,266,1.0,14.0,68,0.00,,,-99.99,,2013-01-17 17:53:00,
2013-01-17 13:04:00,36.0,27.0,-100.00,NNE,22,1.0,14.0,67,0.00,,,-99.99,,2013-01-17 18:04:00,
2013-01-17 13:13:00,36.0,27.0,-100.00,East,86,1.0,14.0,66,0.00,,,-99.99,,2013-01-17 18:13:00,
2013-01-17 13:23:00,36.0,27.0,-100.00,North,1,2.0,14.0,66,0.00,,,-99.99,,2013-01-17 18:23:00,
2013-01-17 13:33:00,39.0,30.0,-100.00,North,352,2.0,14.0,68,1.14,,,-99.99,,2013-01-17 18:33:00,
2013-01-17 13:44:00,37.0,28.0,-100.00,NNE,26,1.0,14.0,66,0.00,,,-99.99,,2013-01-17 18:44:00,
2013-01-17 13:53:00,37.0,27.0,-100.00,WNW,303,2.0,14.0,66,0.00,,,-99.99,,2013-01-17 18:53:00,
2013-01-17 14:03:00,37.0,27.0,-100.00,SSW,204,1.0,14.0,64,0.00,,,-99.99,,2013-01-17 19:03:00,
2013-01-17 14:13:00,36.0,25.0,-100.00,NW,323,1.0,14.0,63,0.00,,,-99.99,,2013-01-17 19:13:00,
2013-01-17 14:23:00,36.0,27.0,-100.00,WNW,299,2.0,14.0,63,0.00,,,-99.99,,2013-01-17 19:23:00,
2013-01-17 14:33:00,37.0,27.0,-100.00,North,1,2.0,14.0,66,0.00,,,-99.99,,2013-01-17 19:33:00,
2013-01-17 14:43:00,36.0,27.0,-100.00,ENE,74,2.0,14.0,66,0.00,,,-99.99,,2013-01-17 19:43:00,
2013-01-17 14:53:00,36.0,27.0,-100.00,ENE,69,1.0,14.0,67,0.00,,,-99.99,,2013-01-17 19:53:00,
2013-01-17 15:03:00,36.0,27.0,-100.00,North,7,1.0,14.0,68,0.00,,,-99.99,,2013-01-17 20:03:00,
2013-01-17 15:13:00,35.0,27.0,-100.00,North,355,1.0,14.0,69,0.00,,,-99.99,,2013-01-17 20:13:00,
2013-01-17 15:23:00,34.0,27.0,-100.00,NNW,334,1.0,14.0,69,0.00,,,-99.99,,2013-01-17 20:23:00,
2013-01-17 15:33:00,34.0,27.0,-100.00,ENE,73,3.0,14.0,71,0.00,,,-99.99,,2013-01-17 20:33:00,
2013-01-17 15:43:00,34.0,27.0,-100.00,NNW,341,1.0,14.0,71,0.00,,,-99.99,,2013-01-17 20:43:00,
2013-01-17 15:53:00,34.0,27.0,-100.00,WNW,289,1.0,14.0,73,0.00,,,-99.99,,2013-01-17 20:53:00,
2013-01-17 16:03:00,34.0,27.0,-100.00,North,358,1.0,14.0,71,0.00,,,-99.99,,2013-01-17 21:03:00,
2013-01-17 16:13:00,34.0,27.0,-100.00,North,0,2.0,14.0,69,0.00,,,-99.99,,2013-01-17 21:13:00,
2013-01-17 16:23:00,34.0,25.0,-100.00,NNE,25,2.0,14.0,69,0.00,,,-99.99,,2013-01-17 21:23:00,
2013-01-17 16:34:00,34.0,27.0,-100.00,NW,304,1.0,14.0,68,0.00,,,-99.99,,2013-01-17 21:34:00,
2013-01-17 16:43:00,34.0,27.0,-100.00,WNW,300,1.0,14.0,71,0.00,,,-99.99,,2013-01-17 21:43:00,
2013-01-17 16:53:00,33.0,25.0,-100.00,SSW,197,1.0,14.0,71,0.00,,,-99.99,,2013-01-17 21:53:00,
2013-01-17 17:04:00,33.0,25.0,-100.00,NW,306,1.0,14.0,69,0.00,,,-99.99,,2013-01-17 22:04:00,
2013-01-17 17:12:00,33.0,25.0,-100.00,ESE,110,0.0,14.0,68,0.00,,,-99.99,,2013-01-17 22:12:00,
2013-01-17 17:23:00,33.0,23.0,-100.00,WNW,292,1.0,14.0,66,0.00,,,-99.99,,2013-01-17 22:23:00,
2013-01-17 17:33:00,33.0,23.0,-100.00,NE,53,0.0,14.0,66,0.00,,,-99.99,,2013-01-17 22:33:00,
2013-01-17 17:43:00,32.0,23.0,-100.00,SW,234,0.0,14.0,66,0.00,,,-99.99,,2013-01-17 22:43:00,
2013-01-17 17:52:00,32.0,23.0,-100.00,ENE,67,0.0,14.0,66,0.00,,,-99.99,,2013-01-17 22:52:00,
2013-01-17 18:03:00,33.0,23.0,-100.00,North,360,1.0,14.0,67,0.00,,,-99.99,,2013-01-17 23:03:00,
2013-01-17 18:12:00,31.0,23.0,-100.00,WNW,303,0.0,14.0,67,0.00,,,-99.99,,2013-01-17 23:12:00,
2013-01-17 18:23:00,31.0,23.0,-100.00,West,276,1.0,14.0,68,0.00,,,-99.99,,2013-01-17 23:23:00,
2013-01-17 18:33:00,31.0,23.0,-100.00,WSW,237,0.0,14.0,69,0.00,,,-99.99,,2013-01-17 23:33:00,
2013-01-17 18:43:00,30.0,23.0,-100.00,SW,227,1.0,14.0,71,0.00,,,-99.99,,2013-01-17 23:43:00,
2013-01-17 18:53:00,31.0,23.0,-100.00,South,187,0.0,14.0,71,0.00,,,-99.99,,2013-01-17 23:53:00,
2013-01-17 19:03:00,31.0,25.0,-100.00,South,172,1.0,14.0,72,0.00,,,-99.99,,2013-01-18 00:03:00,
2013-01-17 19:12:00,31.0,23.0,-100.00,NNE,16,1.0,14.0,72,0.00,,,-99.99,,2013-01-18 00:12:00,
2013-01-17 19:23:00,31.0,25.0,-100.00,West,259,1.0,14.0,73,0.00,,,-99.99,,2013-01-18 00:23:00,
2013-01-17 19:33:00,32.0,25.0,-100.00,NNE,15,0.0,14.0,72,1.14,,,-99.99,,2013-01-18 00:33:00,
2013-01-17 19:43:00,32.0,25.0,-100.00,NNE,32,0.0,14.0,73,0.00,,,-99.99,,2013-01-18 00:43:00,
2013-01-17 19:52:00,32.0,27.0,-100.00,ENE,72,0.0,14.0,76,0.00,,,-99.99,,2013-01-18 00:52:00,
2013-01-17 20:03:00,30.0,25.0,-100.00,NNE,12,0.0,14.0,77,1.14,,,-99.99,,2013-01-18 01:03:00,
2013-01-17 20:13:00,31.0,27.0,-100.00,SE,132,0.0,14.0,78,1.14,,,-99.99,,2013-01-18 01:13:00,
2013-01-17 20:23:00,31.0,27.0,-100.00,North,7,0.0,14.0,78,1.14,,,-99.99,,2013-01-18 01:23:00,
2013-01-17 20:33:00,31.0,27.0,-100.00,NW,314,0.0,14.0,80,0.00,,,-99.99,,2013-01-18 01:33:00,
2013-01-17 20:43:00,32.0,27.0,-100.00,West,280,1.0,14.0,78,0.00,,,-99.99,,2013-01-18 01:43:00,
2013-01-17 20:52:00,32.0,27.0,-100.00,WSW,248,0.0,14.0,78,0.00,,,-99.99,,2013-01-18 01:52:00,
2013-01-17 21:03:00,32.0,27.0,-100.00,SSE,151,0.0,14.0,78,0.00,,,-99.99,,2013-01-18 02:03:00,
2013-01-17 21:12:00,31.0,25.0,-100.00,North,9,2.0,14.0,77,0.00,,,-99.99,,2013-01-18 02:12:00,
2013-01-17 21:23:00,31.0,27.0,-100.00,NW,326,1.0,14.0,77,0.00,,,-99.99,,2013-01-18 02:23:00,
2013-01-17 21:33:00,29.0,23.0,-100.00,West,261,2.0,14.0,75,0.00,,,-99.99,,2013-01-18 02:33:00,
2013-01-17 21:43:00,31.0,23.0,-100.00,WNW,303,1.0,14.0,72,0.00,,,-99.99,,2013-01-18 02:43:00,
2013-01-17 21:52:00,32.0,23.0,-100.00,NW,316,2.0,14.0,69,0.00,,,-99.99,,2013-01-18 02:52:00,
2013-01-17 22:02:00,30.0,21.0,-100.00,West,279,2.0,14.0,67,0.00,,,-99.99,,2013-01-18 03:02:00,
2013-01-17 22:12:00,30.0,21.0,-100.00,West,269,1.0,14.0,68,0.00,,,-99.99,,2013-01-18 03:12:00,
2013-01-17 22:23:00,30.0,21.0,-100.00,North,7,2.0,14.0,67,0.00,,,-99.99,,2013-01-18 03:23:00,
2013-01-17 22:33:00,30.0,23.0,-100.00,NE,42,1.0,14.0,69,0.00,,,-99.99,,2013-01-18 03:33:00,
2013-01-17 22:43:00,30.0,23.0,-100.00,NW,304,4.0,14.0,73,0.00,,,-99.99,,2013-01-18 03:43:00,
2013-01-17 22:52:00,28.0,21.0,-100.00,ENE,66,2.0,14.0,71,0.00,,,-99.99,,2013-01-18 03:52:00,
2013-01-17 23:02:00,29.0,21.0,-100.00,WNW,297,2.0,14.0,69,0.00,,,-99.99,,2013-01-18 04:02:00,
2013-01-17 23:12:00,28.0,21.0,-100.00,North,2,4.0,14.0,72,1.14,,,-99.99,,2013-01-18 04:12:00,
2013-01-17 23:22:00,28.0,19.0,-100.00,West,279,3.0,3.0,69,0.00,,,-99.99,,2013-01-18 04:22:00,
2013-01-17 23:33:00,27.0,19.0,-100.00,WNW,285,4.0,4.0,68,0.00,,,-99.99,,2013-01-18 04:33:00,
2013-01-17 23:42:00,27.0,18.0,-100.00,NNW,336,6.0,8.0,63,0.00,,,-99.99,,2013-01-18 04:42:00,
2013-01-17 23:53:00,27.0,16.0,-100.00,NNW,327,6.0,8.0,63,0.00,,,-99.99,,2013-01-18 04:53:00,